Theta_e
321 318 319 319 318 320 323 323 325 324 321 321 320 320 319 326 336 336 336 336 338 338 334 335 331 331 332 332 332 331 329 328 327 330 333 333 333 332 323 318 314 313 312 314
318 320 321 320 322 323 322 323 322 323 322 321 321 324 324 327 335 336 336 335 336 337 335 332 333 332 332 332 331 330 329 328 331 333 332 332 329 321 318 315 315 313 314 316
320 321 324 323 323 324 323 324 324 324 323 321 320 325 324 328 334 336 336 335 335 335 335 333 334 331 331 332 333 331 330 332 333 331 329 323 319 316 316 315 314 313 316 316
321 321 324 323 325 322 325 324 326 326 323 324 319 324 323 323 329 334 335 335 335 336 335 333 334 330 330 331 333 332 333 333 332 323 321 319 317 317 315 314 314 315 316 315
325 324 325 325 325 324 325 325 323 323 323 319 320 321 322 322 325 328 334 336 336 336 335 335 335 331 331 330 333 333 333 331 323 320 319 318 317 315 314 314 315 316 315 313
324 324 324 324 323 323 323 323 320 319 317 320 320 323 324 322 324 323 323 333 336 336 336 334 333 333 331 331 334 333 330 322 320 319 318 317 315 314 314 315 315 314 313 312
324 324 324 326 324 322 321 319 321 321 322 323 319 323 321 321 322 322 326 331 333 334 335 333 331 331 333 332 330 326 322 321 319 318 317 315 314 315 315 315 314 313 312 311
324 327 327 327 324 324 322 320 320 325 322 320 321 324 322 321 322 323 329 330 331 334 333 333 331 331 331 329 324 322 320 319 318 316 315 315 315 315 315 314 313 312 311 310
328 328 326 325 325 324 325 323 319 319 320 321 320 323 322 322 322 321 326 330 329 330 331 331 331 331 326 323 321 320 319 317 315 315 314 314 314 315 314 312 312 311 310 308
325 328 327 329 326 326 325 321 324 320 327 327 322 324 323 323 323 321 322 324 326 328 328 330 329 325 322 321 319 318 316 316 315 314 313 313 314 313 311 308 308 308 308 308
323 324 326 326 326 327 326 323 319 318 320 323 324 322 319 320 320 319 321 322 322 323 323 324 324 322 321 319 318 317 316 315 314 312 313 313 312 311 309 307 307 308 309 309
326 321 326 326 324 325 324 324 318 320 322 321 319 320 319 318 320 321 321 321 322 322 322 321 321 319 318 317 317 316 316 315 312 313 313 312 311 310 308 307 308 309 310 310
325 322 323 324 323 323 327 323 319 316 316 320 320 321 321 321 321 322 322 323 322 322 321 319 319 318 318 317 317 316 316 313 312 313 312 311 311 307 307 308 309 310 310 310
327 322 322 323 321 322 325 323 322 320 320 321 321 321 323 321 321 321 321 322 321 320 320 320 319 318 318 317 317 316 315 313 313 313 312 312 308 306 307 308 309 310 310 310
322 327 328 326 327 325 325 325 324 321 320 322 322 322 320 319 318 321 321 321 320 319 320 319 318 318 317 317 317 317 315 314 314 313 312 311 305 307 308 308 310 310 310 310
320 326 326 325 326 326 327 326 325 325 322 323 322 324 321 321 321 321 321 320 320 320 319 320 319 319 319 319 318 317 316 315 314 313 311 306 307 308 308 309 310 310 310 310
323 324 322 325 327 326 322 326 326 324 323 322 324 323 322 321 320 321 321 320 320 322 322 323 322 322 321 319 318 317 316 314 313 312 306 306 307 308 309 310 310 310 310 309
324 323 323 326 325 328 322 325 326 328 327 324 325 323 321 322 323 323 322 322 323 323 324 324 323 323 322 320 318 317 316 314 313 307 305 307 308 309 309 310 310 310 309 308
324 324 327 327 326 326 328 326 325 326 328 327 325 324 324 323 323 323 323 324 324 324 324 324 324 323 322 320 318 317 315 313 309 305 307 307 308 309 310 310 309 308 308 307
323 322 326 325 328 329 326 326 326 323 324 324 327 325 324 323 322 320 325 325 325 324 324 324 323 322 321 320 317 316 314 312 306 307 307 308 309 310 310 309 308 308 306 307
325 324 326 324 326 326 324 326 325 324 322 324 326 327 326 322 324 325 326 324 323 323 324 324 322 322 321 318 316 315 314 308 306 306 307 309 309 310 308 306 307 306 306 308
325 324 324 323 327 329 326 326 324 322 324 325 325 326 326 326 325 323 323 323 324 321 320 320 322 322 319 317 316 315 311 306 306 307 308 309 309 309 305 306 306 306 308 308
326 323 325 323 324 323 326 324 325 325 325 324 323 323 323 322 320 319 320 320 321 320 321 320 320 321 319 318 317 315 310 306 306 307 309 309 309 306 305 306 307 307 308 308
319 324 322 321 321 324 325 325 326 325 325 324 324 320 319 320 321 321 320 320 321 321 322 321 321 320 319 317 316 312 307 307 307 307 309 310 309 306 305 306 307 307 307 308
318 319 322 321 322 326 327 327 326 326 325 321 320 320 320 320 320 321 321 321 321 321 321 322 322 320 318 316 314 312 306 307 308 309 310 310 308 305 305 306 306 307 306 307
318 316 317 320 320 322 323 322 320 319 319 320 320 320 320 320 320 320 318 317 317 322 323 321 322 319 317 316 314 309 307 308 308 310 310 308 305 304 305 306 306 306 306 306
Wind_Speed
5 6 3 7 4 4 1 5 3 2 6 4 4 6 8 4 17 20 25 31 34 35 34 22 20 14 15 20 18 16 14 13 12 14 15 16 15 21 21 25 26 31 29 26
7 3 7 2 5 5 4 5 4 4 6 4 7 8 7 8 8 23 28 29 33 35 30 24 18 16 15 20 21 19 18 16 13 16 16 17 19 23 27 29 31 31 29 26
5 8 7 4 4 6 4 4 1 2 3 3 6 5 6 6 5 10 16 21 25 26 26 24 19 18 20 21 23 23 20 17 19 15 15 17 23 25 27 28 29 29 26 27
3 5 7 6 3 4 3 2 2 4 3 2 3 3 4 4 2 4 10 16 21 22 23 23 22 22 24 22 24 24 19 23 20 14 17 21 24 24 24 26 26 23 24 29
2 5 6 6 2 3 3 2 3 2 1 5 8 5 5 2 1 4 11 17 20 21 23 20 20 24 26 15 26 24 25 20 14 16 20 23 23 23 24 24 23 22 26 25
2 2 2 3 4 4 2 3 7 4 3 4 3 4 3 2 5 3 6 17 18 16 17 16 16 18 22 20 20 22 16 14 15 19 21 21 23 24 24 21 22 25 24 22
5 5 4 3 4 7 9 8 5 6 6 3 6 4 7 4 3 7 10 13 14 12 14 13 15 15 17 18 18 16 16 16 18 19 19 21 22 19 19 20 22 22 23 28
4 5 2 0 4 5 4 5 5 1 1 5 5 2 4 2 2 6 9 11 9 9 11 14 17 17 15 15 16 16 16 17 16 17 19 20 16 17 18 21 24 25 28 30
4 2 3 3 3 5 1 4 3 6 2 2 3 2 3 1 2 6 9 10 10 13 14 15 18 16 14 16 16 15 15 14 15 18 22 20 18 20 24 27 27 29 30 24
6 3 2 4 7 7 3 5 3 4 0 2 4 4 5 6 3 1 8 13 14 16 15 16 16 18 17 16 14 13 13 14 18 23 23 21 21 24 28 29 30 20 19 20
4 4 4 3 2 3 3 2 6 4 4 4 1 6 7 9 10 9 11 15 18 16 15 18 19 18 17 15 12 11 13 17 22 23 21 23 25 26 26 29 18 18 22 22
2 5 2 1 5 4 2 3 4 5 4 2 4 7 3 7 8 11 17 14 10 9 12 15 15 13 12 10 10 13 16 21 22 22 25 25 27 30 23 23 18 21 24 22
5 3 3 7 6 5 3 2 4 4 3 4 4 6 3 4 11 14 16 10 11 13 16 13 9 11 11 10 10 15 18 21 22 23 25 27 30 26 22 19 20 25 23 18
5 3 6 6 5 3 3 5 3 4 3 3 6 6 4 4 7 10 12 11 15 15 12 8 10 10 9 9 12 16 19 21 23 25 26 28 28 21 16 19 23 24 19 16
4 3 2 2 1 2 1 2 5 5 6 5 6 3 7 7 7 9 10 15 16 15 12 10 8 8 9 9 12 16 18 21 24 25 27 29 23 13 16 20 26 20 16 15
3 1 2 2 1 5 3 6 6 3 3 1 5 1 3 3 9 11 18 18 16 15 9 8 9 10 11 11 13 16 19 22 24 25 27 26 14 13 16 21 24 17 16 15
3 5 3 3 3 5 5 3 3 2 2 5 2 5 4 5 8 8 16 16 14 12 10 11 12 13 15 13 14 17 20 23 24 27 27 16 12 14 18 24 21 18 16 12
5 4 2 3 3 0 5 2 4 4 4 4 1 2 3 4 2 7 13 12 12 13 14 13 15 18 18 17 17 18 21 23 24 27 19 13 12 16 20 22 19 18 13 11
1 5 3 4 3 4 2 3 5 3 4 3 2 3 5 5 3 8 13 12 13 16 17 18 20 20 19 18 16 18 20 23 25 23 15 12 14 17 23 20 18 17 11 9
5 5 4 3 4 6 6 3 0 2 4 1 0 2 3 7 0 6 3 11 12 17 21 24 24 21 21 19 16 17 21 25 25 18 13 12 15 20 21 18 18 13 10 4
2 3 4 2 3 6 7 6 4 4 7 3 3 2 2 3 6 7 9 9 16 20 18 21 23 22 22 18 14 18 23 25 21 14 11 13 16 19 16 19 12 9 5 2
7 6 3 3 2 6 6 5 6 5 2 1 1 5 4 2 6 12 14 16 15 20 23 22 20 24 20 17 14 19 23 22 15 10 11 14 19 14 16 14 10 6 4 6
2 6 5 8 5 3 11 4 7 3 3 2 4 5 5 5 11 14 18 20 22 22 23 24 21 22 22 18 15 19 20 19 12 8 13 16 13 12 15 13 9 6 5 6
4 3 2 2 2 4 5 7 6 5 4 5 3 5 6 7 10 14 17 20 22 23 26 25 21 21 22 16 15 17 19 14 11 9 13 15 9 14 14 12 9 9 7 9
3 0 2 1 3 5 7 7 8 5 4 3 1 2 4 7 10 14 18 21 24 25 25 24 22 21 16 12 14 16 16 11 9 12 14 9 9 12 13 12 11 12 12 9
5 6 4 5 7 5 7 7 6 4 2 4 2 2 4 8 11 15 20 24 27 27 25 21 18 18 14 11 14 14 13 9 10 13 9 8 10 9 10 10 10 10 12 11
Wind_Direction
5 45 293 266 156 179 211 113 104 327 335 80 20 7 355 89 135 144 174 192 199 203 201 217 226 220 218 215 219 230 243 238 256 272 281 294 301 308 310 314 323 325 325 317
9 294 264 48 135 116 195 108 3 328 349 69 47 33 15 56 152 180 180 195 203 210 211 216 223 226 221 210 221 229 238 245 260 280 290 294 308 309 316 320 325 328 324 319
170 244 32 108 98 88 25 79 11 221 343 45 98 16 11 19 57 193 181 198 205 212 213 216 225 230 224 219 220 230 235 246 259 292 294 296 312 313 315 321 324 325 321 317
218 308 128 111 123 123 53 257 243 265 87 201 53 211 358 20 351 289 203 205 212 213 215 220 225 225 224 230 231 233 246 259 280 281 288 309 313 310 320 321 321 318 313 315
272 138 113 85 28 142 220 353 33 13 92 92 346 79 263 180 88 258 238 224 221 217 219 226 229 228 214 247 232 245 252 270 268 277 302 308 308 316 318 316 314 308 312 314
7 130 65 112 58 43 29 16 42 48 54 61 267 123 257 226 169 223 243 224 216 209 215 224 229 231 230 234 235 246 258 261 274 296 299 304 309 313 313 310 309 315 322 318
12 338 320 149 85 10 57 46 357 12 12 244 325 55 236 258 184 178 180 190 182 194 212 219 218 208 207 220 238 240 255 273 285 287 293 301 307 303 305 312 318 320 318 321
111 343 336 217 129 149 66 108 135 45 303 280 336 136 259 246 152 150 151 145 165 190 200 215 212 211 231 239 233 243 260 271 273 286 300 308 299 301 311 314 315 314 315 316
132 282 321 15 121 106 133 41 173 105 12 42 290 320 356 104 185 131 149 171 172 178 199 210 215 226 217 222 235 252 260 265 286 307 315 313 310 313 313 315 311 314 316 323
190 119 347 349 56 36 94 154 38 14 88 288 304 284 234 229 208 228 140 157 167 187 199 201 208 206 218 226 242 248 267 296 310 316 319 319 317 315 319 318 313 324 333 326
119 103 276 37 39 196 12 32 55 111 132 172 224 269 216 209 196 194 182 158 163 168 177 190 203 213 225 227 244 273 293 307 319 325 326 323 324 326 319 324 327 323 323 321
35 121 104 190 320 319 177 161 124 119 249 196 158 269 301 254 204 180 185 187 178 186 187 190 192 209 221 241 269 293 312 324 328 330 330 329 328 327 323 328 322 322 324 324
180 30 52 354 354 358 28 60 105 113 80 209 136 266 301 134 159 188 175 192 193 184 176 177 205 226 239 263 301 320 323 326 327 328 329 328 328 328 329 325 319 325 326 328
97 99 148 185 198 193 325 351 62 115 107 225 230 274 234 210 185 184 173 178 176 175 175 199 222 237 257 291 313 319 326 329 327 329 329 328 331 331 329 322 321 327 327 328
87 106 152 158 236 54 281 314 311 199 211 162 274 232 294 216 212 200 206 180 177 178 192 220 240 262 277 301 314 322 328 328 326 328 328 329 332 337 332 321 327 328 326 326
7 147 81 355 29 35 338 332 314 307 107 3 98 59 239 193 184 187 189 182 192 191 220 250 257 273 293 303 312 323 327 327 326 329 328 329 333 338 330 324 331 328 328 333
87 123 87 257 357 13 4 295 345 36 8 150 163 229 195 181 182 194 192 201 210 224 265 280 291 301 304 300 309 323 326 324 327 328 329 332 334 335 327 333 333 330 328 333
125 101 102 197 46 116 245 280 262 115 336 319 105 15 175 172 221 233 209 210 239 260 285 291 304 303 299 297 304 319 322 322 328 331 333 333 340 332 332 336 332 332 337 336
33 125 97 141 181 279 249 219 175 173 255 230 160 129 164 164 154 230 222 245 274 290 298 300 291 284 287 291 302 313 320 323 333 335 335 339 340 334 338 337 335 337 341 335
57 64 120 140 161 197 239 218 160 105 280 283 45 83 179 186 37 264 260 278 300 307 301 295 282 277 281 292 299 311 323 329 336 338 342 347 337 340 341 339 337 350 345 358
25 1 175 160 216 288 242 186 113 100 238 109 10 6 290 202 257 329 336 319 314 322 316 296 280 276 281 286 300 318 327 333 338 344 352 342 340 344 348 341 347 348 338 43
180 164 208 106 138 270 184 110 167 218 217 64 66 64 68 19 337 341 342 343 337 338 343 343 305 278 274 279 302 320 329 339 343 352 352 342 345 359 354 355 5 360 34 123
260 187 185 174 214 257 180 160 165 175 151 136 94 85 71 14 347 344 340 333 335 334 330 330 322 282 276 277 299 322 336 345 349 354 352 348 357 10 7 11 16 31 60 116
320 167 129 100 309 287 243 210 193 161 135 130 62 54 24 359 354 353 345 341 337 330 329 321 305 293 271 276 305 330 343 351 358 358 347 351 13 18 19 26 39 52 88 118
204 127 169 287 287 87 97 144 153 143 139 133 128 41 17 350 352 347 344 342 335 332 330 330 303 275 271 285 318 336 346 357 8 356 351 16 31 24 33 48 67 81 69 93
205 189 157 218 203 177 160 138 144 162 153 117 108 38 358 340 346 344 347 345 337 328 330 325 298 260 267 293 322 341 347 3 3 358 22 44 38 47 50 58 81 74 84 86